Change the Weather History Date:

Monday, April 30, 2012

  Actual Average Record
Temperature  
Mean Temperature 53 °F 49 °F  
Max Temperature 66 °F 62 °F 83 °F (1987)
Min Temperature 39 °F 36 °F 13 °F (1909)
Degree Days  
Heating Degree Days 12 16  
Month to date heating degree days 489 602  
Since 1 July heating degree days 6344 7054  
Cooling Degree Days 0 0  
Month to date cooling degree days 0 0  
Year to date cooling degree days 0 0  
Growing Degree Days 2 (Base 50)    
Moisture  
Dew Point 33 °F    
Average Humidity 51    
Maximum Humidity 70    
Minimum Humidity 32    
Precipitation  
Precipitation 0.00 in 0.04 in 0.95 in (1951)
Month to date precipitation 0.59 0.98  
Year to date precipitation 3.31 2.23  
Snow  
Snow 0.00 in 0.10 in 5.50 in (1913)
Month to date snowfall T 3.7  
Since 1 July snowfall 40.1 37.2  
Snow Depth 0.00 in    
Sea Level Pressure  
Sea Level Pressure 29.71 in    
Wind  
Wind Speed 6 mph (West)    
Max Wind Speed 36 mph    
Max Gust Speed 45 mph    
Visibility 10 miles    
Events      
T = Trace of Precipitation, MM = Missing Value Source: NWS Daily Summary

Daily Weather History Graph

Daily Weather History Graph

Search for Another Location

Airport or City:

Trip Planner

Search our weather history database for the weather conditions in past years. The results will help you decide how hot, cold, wet, or windy it might be!

Date:

Astronomy

Apr. 30, 2012 Rise Set
Actual Time 6:14 AM MDT 8:36 PM MDT
Civil Twilight 5:40 AM MDT 9:10 PM MDT
Nautical Twilight 4:58 AM MDT 9:52 PM MDT
Astronomical Twilight 4:11 AM MDT 10:40 PM MDT
Moon 2:16 PM MDT (4/30) 3:03 AM MDT (4/30)
Length of Visible Light 15h 30m
Length of Day
14h 22m
Waxing Gibbous, 64% of the Moon is Illuminated
Apr 30
Waxing Gibbous
May 5
Full
May 12
Last Quarter
May 20
New
May 28
First Quarter

Hourly Weather History & Observations

Time (MDT) Temp. Windchill Dew Point Humidity Pressure Visibility Wind Dir Wind Speed Gust Speed Precip Events Conditions
12:53 AM 41.0 °F 38.0 °F 28.9 °F 62% 29.92 in 10.0 mi North 4.6 mph - N/A   Clear
1:53 AM 44.1 °F 42.5 °F 28.9 °F 55% 29.89 in 10.0 mi South 3.5 mph - N/A   Clear
2:53 AM 39.9 °F 37.8 °F 30.0 °F 68% 29.87 in 10.0 mi North 3.5 mph - N/A   Clear
3:53 AM 39.9 °F 37.8 °F 30.0 °F 68% 29.86 in 10.0 mi West 3.5 mph - N/A   Clear
4:53 AM 39.9 °F 37.8 °F 28.9 °F 65% 29.84 in 10.0 mi West 3.5 mph - N/A   Clear
5:53 AM 41.0 °F - 28.9 °F 62% 29.82 in 10.0 mi Calm Calm - N/A   Clear
6:53 AM 41.0 °F - 28.9 °F 62% 29.80 in 10.0 mi Calm Calm - N/A   Clear
7:53 AM 43.0 °F 41.3 °F 30.0 °F 60% 29.76 in 10.0 mi WNW 3.5 mph - N/A   Scattered Clouds
8:53 AM 45.0 °F 43.5 °F 30.9 °F 58% 29.74 in 10.0 mi Variable 3.5 mph - N/A   Overcast
9:53 AM 46.0 °F - 30.9 °F 56% 29.72 in 10.0 mi Calm Calm - N/A   Overcast
10:53 AM 48.0 °F - 34.0 °F 58% 29.70 in 10.0 mi Calm Calm - N/A   Overcast
11:53 AM 52.0 °F - 37.0 °F 57% 29.68 in 10.0 mi SSW 5.8 mph 18.4 mph N/A   Overcast
12:53 PM 53.1 °F - 37.0 °F 55% 29.66 in 10.0 mi South 10.4 mph 18.4 mph N/A   Overcast
1:53 PM 57.9 °F - 37.9 °F 47% 29.60 in 10.0 mi Variable 5.8 mph - N/A   Overcast
2:53 PM 57.9 °F - 37.9 °F 47% 29.62 in 10.0 mi North 5.8 mph 17.3 mph N/A   Overcast
3:53 PM 61.0 °F - 34.0 °F 36% 29.58 in 10.0 mi WNW 10.4 mph - N/A   Overcast
4:53 PM 66.0 °F - 35.1 °F 32% 29.54 in 10.0 mi NW 8.1 mph - N/A   Scattered Clouds
5:15 PM 62.6 °F - 30.2 °F 30% 29.52 in 10.0 mi WNW 26.5 mph 39.1 mph N/A   Mostly Cloudy
5:53 PM 53.1 °F - 37.0 °F 55% 29.66 in 10.0 mi West 18.4 mph 34.5 mph N/A   Overcast
6:53 PM 54.0 °F - 37.9 °F 55% 29.66 in 10.0 mi West 8.1 mph 17.3 mph N/A   Scattered Clouds
7:53 PM 52.0 °F - 37.0 °F 57% 29.65 in 10.0 mi West 5.8 mph - N/A   Mostly Cloudy
8:53 PM 48.9 °F - 37.0 °F 64% 29.68 in 10.0 mi West 4.6 mph - N/A   Mostly Cloudy
9:53 PM 50.0 °F - 36.0 °F 59% 29.68 in 10.0 mi SW 4.6 mph - N/A   Mostly Cloudy
10:53 PM 48.9 °F - 34.0 °F 56% 29.69 in 10.0 mi WSW 9.2 mph - N/A   Clear
11:53 PM 48.0 °F - 32.0 °F 54% 29.69 in 10.0 mi WSW 12.7 mph - N/A   Clear